Year,Month,Day,Hour,Minute,Value (Times are PST for temperature in C)
2012,04,09,08,38,7.30
2012,04,09,08,39,7.30
2012,04,09,08,40,7.30
2012,04,09,08,41,7.40
2012,04,09,08,42,7.40
2012,04,09,08,43,7.40
2012,04,09,08,44,7.40
2012,04,09,08,45,7.50
2012,04,09,08,46,7.50
2012,04,09,08,47,7.60
2012,04,09,08,48,7.60
2012,04,09,08,49,7.60
2012,04,09,08,50,7.60
2012,04,09,08,51,7.70
2012,04,09,08,52,7.70
2012,04,09,08,53,7.70
2012,04,09,08,54,7.80
2012,04,09,08,55,7.80
2012,04,09,08,56,7.80
2012,04,09,08,57,7.80
2012,04,09,08,58,7.90
2012,04,09,08,59,7.90
2012,04,09,09,00,8.00
2012,04,09,09,01,8.00
2012,04,09,09,02,8.10
2012,04,09,09,03,8.10
2012,04,09,09,04,8.20
2012,04,09,09,05,8.20
2012,04,09,09,06,8.30
2012,04,09,09,07,8.40
2012,04,09,09,08,8.40
2012,04,09,09,09,8.50
2012,04,09,09,10,8.60
2012,04,09,09,11,8.60
2012,04,09,09,12,8.70
2012,04,09,09,13,8.80
2012,04,09,09,14,8.90
2012,04,09,09,15,9.00
2012,04,09,09,16,9.10
2012,04,09,09,17,9.20
2012,04,09,09,18,9.30
2012,04,09,09,19,9.30
2012,04,09,09,20,9.40
2012,04,09,09,21,9.50
2012,04,09,09,22,9.60
2012,04,09,09,23,9.60
2012,04,09,09,24,9.70
2012,04,09,09,25,9.80
2012,04,09,09,26,9.90
2012,04,09,09,27,9.90
2012,04,09,09,28,10.00
2012,04,09,09,29,10.10
2012,04,09,09,30,10.10
2012,04,09,09,31,10.20
2012,04,09,09,32,10.20
2012,04,09,09,33,10.30
2012,04,09,09,34,10.30
2012,04,09,09,35,10.40
2012,04,09,09,36,10.50
2012,04,09,09,37,10.60
2012,04,09,09,38,10.70
2012,04,09,09,39,10.70
2012,04,09,09,40,10.80
2012,04,09,09,41,10.90
2012,04,09,09,42,10.90
2012,04,09,09,43,11.00
2012,04,09,09,44,11.10
2012,04,09,09,45,11.20
2012,04,09,09,46,11.20
2012,04,09,09,47,11.30
2012,04,09,09,48,11.30
2012,04,09,09,49,11.30
2012,04,09,09,50,11.30
2012,04,09,09,51,11.30
2012,04,09,09,52,11.40
2012,04,09,09,53,11.40
2012,04,09,09,54,11.40
2012,04,09,09,55,11.50
2012,04,09,09,56,11.50
2012,04,09,09,57,11.60
2012,04,09,09,58,11.60
2012,04,09,09,59,11.60
2012,04,09,10,00,11.60
2012,04,09,10,01,11.60
2012,04,09,10,02,11.70
2012,04,09,10,03,11.70
2012,04,09,10,04,11.70
2012,04,09,10,05,11.70
2012,04,09,10,06,11.80
2012,04,09,10,07,11.80
2012,04,09,10,08,11.80
2012,04,09,10,09,11.80
2012,04,09,10,10,11.80
2012,04,09,10,11,11.80
2012,04,09,10,12,11.80
2012,04,09,10,13,11.80
2012,04,09,10,14,11.80
2012,04,09,10,15,11.90
2012,04,09,10,16,11.90
2012,04,09,10,17,12.00
2012,04,09,10,18,12.00
2012,04,09,10,19,12.00
2012,04,09,10,20,12.10
2012,04,09,10,21,12.10
2012,04,09,10,22,12.10
2012,04,09,10,23,12.10
2012,04,09,10,24,12.10
2012,04,09,10,25,12.20
2012,04,09,10,26,12.20
2012,04,09,10,27,12.20
2012,04,09,10,28,12.20
2012,04,09,10,29,12.20
2012,04,09,10,30,12.20
2012,04,09,10,31,12.20
2012,04,09,10,32,12.30
2012,04,09,10,33,12.30
2012,04,09,10,34,12.30
2012,04,09,10,35,12.30
2012,04,09,10,36,12.30
2012,04,09,10,37,12.30
2012,04,09,10,38,12.30
2012,04,09,10,39,12.30
2012,04,09,10,40,12.30
2012,04,09,10,41,12.30
2012,04,09,10,42,12.30
2012,04,09,10,43,12.30
2012,04,09,10,44,12.40
2012,04,09,10,45,12.40
2012,04,09,10,46,12.40
2012,04,09,10,47,12.40
2012,04,09,10,48,12.50
2012,04,09,10,49,12.50
2012,04,09,10,50,12.60
2012,04,09,10,51,12.60
2012,04,09,10,52,12.70
2012,04,09,10,53,12.70
2012,04,09,10,54,12.80
2012,04,09,10,55,12.80
2012,04,09,10,56,12.90
2012,04,09,10,57,12.90
2012,04,09,10,58,12.90
2012,04,09,10,59,12.90
2012,04,09,11,00,12.90
2012,04,09,11,01,12.90
2012,04,09,11,02,12.90
2012,04,09,11,03,12.90
2012,04,09,11,04,12.90
2012,04,09,11,05,12.90
2012,04,09,11,06,12.90
2012,04,09,11,07,13.00
2012,04,09,11,08,13.00
2012,04,09,11,09,13.10
2012,04,09,11,10,13.10
2012,04,09,11,11,13.20
2012,04,09,11,12,13.30
2012,04,09,11,13,13.30
2012,04,09,11,14,13.30
2012,04,09,11,15,13.30
2012,04,09,11,16,13.40
2012,04,09,11,17,13.40
2012,04,09,11,18,13.50
2012,04,09,11,19,13.50
2012,04,09,11,20,13.60
2012,04,09,11,21,13.60
2012,04,09,11,22,13.60
2012,04,09,11,23,13.60
2012,04,09,11,24,13.60
2012,04,09,11,25,13.60
2012,04,09,11,26,13.50
2012,04,09,11,27,13.50
2012,04,09,11,28,13.50
2012,04,09,11,29,13.40
2012,04,09,11,30,13.40
2012,04,09,11,31,13.30
2012,04,09,11,32,13.30
2012,04,09,11,33,13.30
2012,04,09,11,34,13.30
2012,04,09,11,35,13.30
2012,04,09,11,36,13.30
2012,04,09,11,37,13.30
2012,04,09,11,38,13.40
2012,04,09,11,39,13.40
2012,04,09,11,40,13.40
2012,04,09,11,41,13.40
2012,04,09,11,42,13.50
2012,04,09,11,43,13.50
2012,04,09,11,44,13.60
2012,04,09,11,45,13.60
2012,04,09,11,46,13.70
2012,04,09,11,47,13.80
2012,04,09,11,48,13.80
2012,04,09,11,49,13.90
2012,04,09,11,50,13.90
2012,04,09,11,51,13.90
2012,04,09,11,52,13.90
2012,04,09,11,53,13.90
2012,04,09,11,54,13.90
2012,04,09,11,55,14.00
2012,04,09,11,56,14.00
2012,04,09,11,57,14.00
2012,04,09,11,58,14.00
2012,04,09,11,59,14.00
2012,04,09,12,00,14.00
2012,04,09,12,01,14.00
2012,04,09,12,02,14.00
2012,04,09,12,03,14.10
2012,04,09,12,04,14.10
2012,04,09,12,05,14.10
2012,04,09,12,06,14.20
2012,04,09,12,07,14.20
2012,04,09,12,08,14.20
2012,04,09,12,09,14.20
2012,04,09,12,10,14.10
2012,04,09,12,11,14.10
2012,04,09,12,12,14.00
2012,04,09,12,13,14.00
2012,04,09,12,14,14.00
2012,04,09,12,15,14.00
2012,04,09,12,16,14.00
2012,04,09,12,17,14.00
2012,04,09,12,18,13.90
2012,04,09,12,19,13.90
2012,04,09,12,20,13.90
2012,04,09,12,21,13.90
2012,04,09,12,22,13.90
2012,04,09,12,23,13.90
2012,04,09,12,24,13.90
2012,04,09,12,25,13.90
2012,04,09,12,26,13.90
2012,04,09,12,27,13.90
2012,04,09,12,28,13.90
2012,04,09,12,29,14.00
2012,04,09,12,30,13.90
2012,04,09,12,31,13.90
2012,04,09,12,32,13.90
2012,04,09,12,33,13.90
2012,04,09,12,34,13.90
2012,04,09,12,35,13.90
2012,04,09,12,36,14.00
2012,04,09,12,37,14.00
2012,04,09,12,38,14.10
2012,04,09,12,39,14.10
2012,04,09,12,40,14.10
2012,04,09,12,41,14.20
2012,04,09,12,42,14.20
2012,04,09,12,43,14.20
2012,04,09,12,44,14.20
2012,04,09,12,45,14.20
2012,04,09,12,46,14.20
2012,04,09,12,47,14.20
2012,04,09,12,48,14.20
2012,04,09,12,49,14.30
2012,04,09,12,50,14.30
2012,04,09,12,51,14.30
2012,04,09,12,52,14.30
2012,04,09,12,53,14.30
2012,04,09,12,54,14.30
2012,04,09,12,55,14.40
2012,04,09,12,56,14.40
2012,04,09,12,57,14.40
2012,04,09,12,58,14.50
2012,04,09,12,59,14.50
2012,04,09,13,00,14.60
2012,04,09,13,01,14.70
2012,04,09,13,02,14.70
2012,04,09,13,03,14.70
2012,04,09,13,04,14.70
2012,04,09,13,05,14.70
2012,04,09,13,06,14.70
2012,04,09,13,07,14.70
2012,04,09,13,08,14.70
2012,04,09,13,09,14.70
2012,04,09,13,10,14.80
2012,04,09,13,11,14.80
2012,04,09,13,12,14.90
2012,04,09,13,13,14.90
2012,04,09,13,14,14.90
2012,04,09,13,15,14.90
2012,04,09,13,16,14.80
2012,04,09,13,17,14.80
2012,04,09,13,18,14.70
2012,04,09,13,19,14.70
2012,04,09,13,20,14.80
2012,04,09,13,21,14.80
2012,04,09,13,22,15.00
2012,04,09,13,23,15.00
2012,04,09,13,24,15.00
2012,04,09,13,25,15.00
2012,04,09,13,26,15.00
2012,04,09,13,27,15.00
2012,04,09,13,28,15.00
2012,04,09,13,29,15.00
2012,04,09,13,30,15.00
2012,04,09,13,31,15.00
2012,04,09,13,32,15.00
2012,04,09,13,33,15.00
2012,04,09,13,34,15.10
2012,04,09,13,35,15.10
2012,04,09,13,36,15.20
2012,04,09,13,37,15.20
2012,04,09,13,38,15.20
2012,04,09,13,39,15.20
2012,04,09,13,40,15.30
2012,04,09,13,41,15.20
2012,04,09,13,42,15.20
2012,04,09,13,43,15.20
2012,04,09,13,44,15.10
2012,04,09,13,45,15.20
2012,04,09,13,46,15.20
2012,04,09,13,47,15.20
2012,04,09,13,48,15.20
2012,04,09,13,49,15.30
2012,04,09,13,50,15.30
2012,04,09,13,51,15.40
2012,04,09,13,52,15.40
2012,04,09,13,53,15.50
2012,04,09,13,54,15.50
2012,04,09,13,55,15.60
2012,04,09,13,56,15.60
2012,04,09,13,57,15.60
2012,04,09,13,58,15.60
2012,04,09,13,59,15.60
2012,04,09,14,00,15.50
2012,04,09,14,01,15.50
2012,04,09,14,02,15.40
2012,04,09,14,03,15.40
2012,04,09,14,04,15.30
2012,04,09,14,05,15.30
2012,04,09,14,06,15.30
2012,04,09,14,07,15.40
2012,04,09,14,08,15.40
2012,04,09,14,09,15.40
2012,04,09,14,10,15.40
2012,04,09,14,11,15.50
2012,04,09,14,12,15.60
2012,04,09,14,13,15.60
2012,04,09,14,14,15.70
2012,04,09,14,15,15.70
2012,04,09,14,16,15.70
2012,04,09,14,17,15.70
2012,04,09,14,18,15.70
2012,04,09,14,19,15.70
2012,04,09,14,20,15.70
2012,04,09,14,21,15.70
2012,04,09,14,22,15.70
2012,04,09,14,23,15.70
2012,04,09,14,24,15.70
2012,04,09,14,25,15.80
2012,04,09,14,26,15.80
2012,04,09,14,27,15.80
2012,04,09,14,28,15.70
2012,04,09,14,29,15.70
2012,04,09,14,30,15.80
2012,04,09,14,31,15.90
2012,04,09,14,32,15.90
2012,04,09,14,33,15.90
2012,04,09,14,34,15.90
2012,04,09,14,35,15.90
2012,04,09,14,36,15.90
2012,04,09,14,37,15.90
2012,04,09,14,38,15.90
2012,04,09,14,39,15.90
2012,04,09,14,40,15.90
2012,04,09,14,41,16.00
2012,04,09,14,42,16.00
2012,04,09,14,43,16.10
2012,04,09,14,44,16.20
2012,04,09,14,45,16.20
2012,04,09,14,46,16.20
2012,04,09,14,47,16.30
2012,04,09,14,48,16.30
2012,04,09,14,49,16.20
2012,04,09,14,50,16.20
2012,04,09,14,51,16.20
2012,04,09,14,52,16.20
2012,04,09,14,53,16.30
2012,04,09,14,54,16.20
2012,04,09,14,55,16.20
2012,04,09,14,56,16.10
2012,04,09,14,57,16.00
2012,04,09,14,58,15.90
2012,04,09,14,59,15.80
2012,04,09,15,00,15.80
2012,04,09,15,01,15.80
2012,04,09,15,02,15.90
2012,04,09,15,03,16.00
2012,04,09,15,04,16.00
2012,04,09,15,05,16.00
2012,04,09,15,06,16.00
2012,04,09,15,07,16.00
2012,04,09,15,08,16.00
2012,04,09,15,09,16.00
2012,04,09,15,10,16.00
2012,04,09,15,11,16.10
2012,04,09,15,12,16.10
2012,04,09,15,13,16.20
2012,04,09,15,14,16.20
2012,04,09,15,15,16.20
2012,04,09,15,16,16.20
2012,04,09,15,17,16.20
2012,04,09,15,18,16.30
2012,04,09,15,19,16.30
2012,04,09,15,20,16.40
2012,04,09,15,21,16.40
2012,04,09,15,22,16.50
2012,04,09,15,23,16.60
2012,04,09,15,24,16.60
2012,04,09,15,25,16.60
2012,04,09,15,26,16.70
2012,04,09,15,27,16.60
2012,04,09,15,28,16.60
2012,04,09,15,29,16.50
2012,04,09,15,30,16.50
2012,04,09,15,31,16.40
2012,04,09,15,32,16.40
2012,04,09,15,33,16.40
2012,04,09,15,34,16.40
2012,04,09,15,35,16.40
2012,04,09,15,36,16.40
2012,04,09,15,37,16.40
2012,04,09,15,38,16.40
2012,04,09,15,39,16.30
2012,04,09,15,40,16.30
2012,04,09,15,41,16.30
2012,04,09,15,42,16.30
2012,04,09,15,43,16.20
2012,04,09,15,44,16.20
2012,04,09,15,45,16.20
2012,04,09,15,46,16.20
2012,04,09,15,47,16.20
2012,04,09,15,48,16.10
2012,04,09,15,49,16.00
2012,04,09,15,50,15.90
2012,04,09,15,51,15.90
2012,04,09,15,52,15.80
2012,04,09,15,53,15.80
2012,04,09,15,54,15.80
2012,04,09,15,55,15.80
2012,04,09,15,56,15.70
2012,04,09,15,57,15.70
2012,04,09,15,58,15.70
2012,04,09,15,59,15.70
2012,04,09,16,00,15.70
2012,04,09,16,01,15.70
2012,04,09,16,02,15.70
2012,04,09,16,03,15.70
2012,04,09,16,04,15.70
2012,04,09,16,05,15.70
2012,04,09,16,06,15.70
2012,04,09,16,07,15.70
2012,04,09,16,08,15.70
2012,04,09,16,09,15.80
2012,04,09,16,10,15.80
2012,04,09,16,11,15.80
2012,04,09,16,12,15.80
2012,04,09,16,13,15.80
2012,04,09,16,14,15.80
2012,04,09,16,15,15.80
2012,04,09,16,16,15.80
2012,04,09,16,17,15.80
2012,04,09,16,18,15.80
2012,04,09,16,19,15.80
2012,04,09,16,35,16.30
2012,04,09,16,36,16.30
2012,04,09,16,37,16.40
2012,04,09,16,38,16.40
2012,04,09,16,39,16.40
2012,04,09,16,40,16.40
2012,04,09,16,41,16.40
2012,04,09,16,42,16.40
2012,04,09,16,43,16.40
2012,04,09,16,44,16.40
2012,04,09,16,45,16.40
2012,04,09,16,46,16.40
2012,04,09,16,47,16.40
2012,04,09,16,48,16.40
2012,04,09,16,49,16.40
2012,04,09,16,50,16.40
2012,04,09,16,51,16.40
2012,04,09,16,52,16.30
2012,04,09,16,53,16.30
2012,04,09,16,54,16.30
2012,04,09,16,55,16.30
2012,04,09,16,56,16.30
2012,04,09,16,57,16.30
2012,04,09,16,58,16.30
2012,04,09,16,59,16.40
2012,04,09,17,00,16.40
2012,04,09,17,01,16.30
2012,04,09,17,02,16.30
2012,04,09,17,03,16.30
2012,04,09,17,04,16.30
2012,04,09,17,05,16.20
2012,04,09,17,06,16.20
2012,04,09,17,07,16.20
2012,04,09,17,08,16.10
2012,04,09,17,09,16.10
2012,04,09,17,10,16.10
2012,04,09,17,11,16.10
2012,04,09,17,12,16.10
2012,04,09,17,13,16.10
2012,04,09,17,14,16.10
2012,04,09,17,15,16.20
2012,04,09,17,16,16.20
2012,04,09,17,17,16.20
2012,04,09,17,18,16.20
2012,04,09,17,19,16.20
2012,04,09,17,20,16.20
2012,04,09,17,21,16.20
2012,04,09,17,22,16.20
2012,04,09,17,23,16.30
2012,04,09,17,24,16.30
2012,04,09,17,25,16.30
2012,04,09,17,26,16.30
2012,04,09,17,27,16.30
2012,04,09,17,28,16.30
2012,04,09,17,29,16.20
2012,04,09,17,30,16.20
2012,04,09,17,31,16.20
2012,04,09,17,32,16.20
2012,04,09,17,33,16.20
2012,04,09,17,34,16.20
2012,04,09,17,35,16.20
2012,04,09,17,36,16.20
2012,04,09,17,37,16.10
2012,04,09,17,38,16.10
2012,04,09,17,39,16.10
2012,04,09,17,40,16.10
2012,04,09,17,41,16.10
2012,04,09,17,42,16.10
2012,04,09,17,43,16.10
2012,04,09,17,44,16.10
2012,04,09,17,45,16.10
2012,04,09,17,46,16.10
2012,04,09,17,47,16.20
2012,04,09,17,48,16.10
2012,04,09,17,49,16.10
2012,04,09,17,50,16.10
2012,04,09,17,51,16.10
2012,04,09,17,52,16.10
2012,04,09,17,53,16.10
2012,04,09,17,54,16.10
2012,04,09,17,55,16.10
2012,04,09,17,56,16.10
2012,04,09,17,57,16.10
2012,04,09,17,58,16.10
2012,04,09,17,59,16.10
2012,04,09,18,00,16.10
2012,04,09,18,01,16.10
2012,04,09,18,02,16.10
2012,04,09,18,03,16.10
